EW9755 Weather Reports


time (UTC)temp
F
wind
direction
speed
knots
gust
knots
rain 1hr
in
rain 24hr
in
rain mn
in
humidity
%
barometer
mb
20260502163218 66 5 20.9 25.2 0.00 0.00 0.00 58 1019.8
20260502162538 66 0 16.5 23.5 0.00 0.00 0.00 60 1019.8
20260502161858 66 357 20.9 23.5 0.00 0.00 0.00 58 1019.5
20260502161218 66 7 18.2 24.3 0.00 0.00 0.00 61 1019.5
20260502160538 65 8 19.1 26.9 0.00 0.00 0.00 63 1019.5
20260502151858 63 359 18.2 22.6 0.00 0.00 0.00 71 1019.5
20260502151218 62 1 15.6 20.9 0.00 0.00 0.00 74 1019.2
20260502150538 62 360 15.6 19.1 0.00 0.00 0.00 74 1019.2
20260502150108 62 358 13.9 19.1 0.00 0.00 0.00 77 1019.5
20260502130538 56 347 16.5 20.9 0.00 0.00 0.00 84 1018.5
20260502123432 55 348 17.4 20.9 0.00 0.00 0.00 86 1018.1
20260502122538 55 348 13.9 20.0 0.00 0.00 0.00 86 1018.1
20260502121858 55 343 13.9 19.1 0.00 0.00 0.00 86 1018.1
20260502121218 55 336 15.6 19.1 0.00 0.00 0.00 86 1017.5
20260502120538 56 340 13.9 18.2 0.00 0.00 0.00 87 1017.5
20260502115858 55 342 13.0 17.4 0.00 0.00 0.00 88 1017.5
20260502115430 56 345 9.6 15.6 0.00 0.00 0.00 90 1017.5
20260502114751 55 348 13.0 17.4 0.00 0.00 0.00 90 1017.1
20260502113858 55 353 11.3 14.8 0.00 0.00 0.00 90 1017.1
20260502113427 55 346 11.3 18.2 0.00 0.00 0.00 90 1017.1
20260502112748 56 345 10.4 18.2 0.00 0.00 0.00 90 1016.8
20260502111858 55 349 13.9 17.4 0.00 0.00 0.00 89 1016.5
20260502111218 56 350 13.0 17.4 0.00 0.00 0.00 89 1016.5
20260502110538 56 349 13.0 17.4 0.00 0.00 0.00 89 1016.5
20260502110110 56 348 12.2 17.4 0.00 0.00 0.00 90 1016.5
20260502105218 56 349 10.4 15.6 0.00 0.00 0.00 90 1016.5
20260502104538 56 354 12.2 16.5 0.00 0.00 0.00 89 1016.5
20260502103858 56 350 13.0 16.5 0.00 0.00 0.00 89 1016.1
20260502103428 56 353 12.2 17.4 0.00 0.00 0.00 89 1016.1
20260502102539 56 348 12.2 20.0 0.00 0.00 0.00 89 1016.1
20260502101858 56 348 15.6 20.0 0.00 0.00 0.00 89 1015.8
20260502101218 57 344 13.0 18.2 0.00 0.00 0.00 91 1015.8
20260502100538 57 343 13.9 20.9 0.00 0.00 0.00 92 1015.4
20260502091431 58 343 14.8 18.2 0.00 0.00 0.00 93 1015.1
20260502090538 58 351 13.9 18.2 0.00 0.00 0.00 93 1014.8
20260502071220 58 356 18.2 23.5 0.00 0.00 0.00 92 1014.8
20260502070747 58 2 17.4 23.5 0.00 0.00 0.00 93 1015.1
20260502065858 58 1 14.8 20.9 0.00 0.00 0.00 92 1014.8
20260502065218 58 3 18.2 22.6 0.00 0.00 0.00 92 1014.8
20260502064749 58 6 15.6 23.5 0.00 0.00 0.00 93 1014.8
20260502063858 57 1 18.2 23.5 0.00 0.00 0.00 93 1014.8
20260502063218 57 358 19.1 25.2 0.00 0.00 0.00 92 1014.8
20260502062538 57 355 19.1 25.2 0.00 0.00 0.00 92 1014.4
20260502061859 57 359 15.6 26.1 0.00 0.00 0.00 93 1014.8
20260502061218 57 357 17.4 23.5 0.00 0.00 0.00 93 1014.4
20260502060538 57 355 14.8 23.5 0.00 0.00 0.00 94 1014.8
20260502055858 57 353 15.6 24.3 0.00 0.00 0.00 94 1014.8
20260502055218 57 346 18.2 26.1 0.00 0.00 0.00 94 1014.8
20260502054538 57 344 20.0 26.1 0.00 0.00 0.00 93 1014.1
20260502053858 57 346 19.1 26.9 0.00 0.00 0.00 93 1014.1
20260502053218 58 353 21.7 27.8 0.00 0.00 0.00 93 1014.4
20260502052538 58 351 20.0 27.8 0.00 0.00 0.00 94 1013.7
20260502051858 58 352 18.2 26.1 0.00 0.00 0.00 94 1014.1
20260502051218 58 353 19.1 24.3 0.00 0.00 0.00 94 1013.7
20260502050538 58 353 16.5 26.1 0.00 0.00 0.00 93 1013.7
20260502045858 58 352 20.9 29.5 0.00 0.00 0.65 93 1013.7
20260502045430 58 344 19.1 29.5 0.00 0.00 0.65 93 1013.4
20260502044750 59 348 22.6 29.5 0.00 0.00 0.65 93 1013.7
20260502044111 59 350 20.0 25.2 0.00 0.00 0.65 93 1013.4
20260502043218 59 350 19.1 25.2 0.00 0.00 0.65 94 1014.1
20260502042538 59 350 17.4 24.3 0.00 0.00 0.65 94 1014.1
20260502041858 59 350 19.1 22.6 0.00 0.00 0.65 94 1013.7
20260502041218 60 347 17.4 20.9 0.00 0.00 0.65 94 1013.7
20260502040538 60 351 13.9 22.6 0.00 0.00 0.65 95 1013.7
20260502040110 60 8 17.4 22.6 0.00 0.00 0.65 95 1013.4
20260502035218 60 2 14.8 20.0 0.00 0.00 0.65 95 1013.4
20260502034538 60 349 13.9 21.7 0.00 0.00 0.65 96 1013.7
20260502033858 60 357 18.2 24.3 0.00 0.00 0.65 95 1013.4
20260502033218 60 3 13.9 22.6 0.00 0.00 0.65 97 1013.4
20260502032748 60 360 17.4 22.6 0.00 0.00 0.65 97 1013.1
20260502031858 60 5 15.6 23.5 0.00 0.00 0.65 97 1013.1
20260502031218 60 1 15.6 20.9 0.00 0.00 0.65 97 1013.1
20260502030538 60 359 15.6 23.5 0.00 0.00 0.65 97 1012.0
20260502025858 60 356 18.2 21.7 0.00 0.00 0.65 97 1012.7
20260502025218 60 3 14.8 20.0 0.00 0.00 0.65 97 1012.7
20260502024538 60 359 15.6 20.0 0.00 0.00 0.65 96 1013.1
20260502023858 60 348 13.0 18.2 0.00 0.00 0.65 98 1013.1
20260502023218 60 340 14.8 22.6 0.00 0.00 0.65 97 1012.7
20260502022538 60 353 18.2 22.6 0.00 0.00 0.65 97 1012.0
20260502021858 61 353 17.4 20.9 0.00 0.00 0.65 98 1012.0
20260502021218 61 347 15.6 20.9 0.00 0.00 0.65 98 1012.4
20260502020538 61 344 13.9 20.9 0.00 0.00 0.65 98 1012.7
20260502015858 61 347 16.5 22.6 0.00 0.00 0.64 98 1012.0
20260502015218 61 348 14.8 22.6 0.00 0.00 0.62 97 1012.0
20260502014538 61 351 16.5 20.9 0.00 0.00 0.61 97 1012.0
20260502013858 61 356 17.4 20.9 0.00 0.00 0.57 96 1011.7
20260502013219 61 7 15.6 20.0 0.00 0.00 0.53 95 1011.7
20260502012538 62 352 14.8 22.6 0.00 0.00 0.50 94 1011.7
20260502012110 61 355 17.4 21.7 0.00 0.00 0.46 95 1011.4
20260502011218 61 4 15.6 22.6 0.00 0.00 0.46 95 1011.0
20260502010538 61 350 18.2 26.9 0.00 0.00 0.46 94 1011.0
20260502005858 62 350 18.2 28.7 0.00 0.00 0.46 95 1011.0
20260502005218 62 349 21.7 28.7 0.00 0.00 0.46 94 1011.0
20260502004538 63 335 17.4 26.1 0.00 0.00 0.46 94 1011.0
20260502003858 64 338 21.7 26.1 0.00 0.00 0.45 93 1010.7
20260502003429 64 330 19.1 31.3 0.00 0.00 0.38 93 1010.7
20260502002538 64 355 25.2 31.3 0.00 0.00 0.37 93 1009.3
20260502001858 64 346 20.0 27.8 0.00 0.00 0.37 95 1009.3
20260502001218 64 353 21.7 27.8 0.00 0.00 0.37 95 1008.3
20260502000538 64 3 18.2 29.5 0.00 0.00 0.37 95 1008.3
20260501235858 64 0 20.0 26.1 0.00 0.00 0.37 95 1007.3
20260501235218 64 7 21.7 28.7 0.00 0.00 0.37 95 1007.3
20260501234538 64 360 21.7 28.7 0.00 0.00 0.37 95 1008.0
20260501234109 64 358 15.6 30.4 0.00 0.00 0.37 96 1008.3
20260501233218 64 6 25.2 30.4 0.00 0.00 0.37 96 1007.6
20260501232750 65 2 16.5 25.2 0.00 0.00 0.37 96 1008.0
20260501231858 65 0 18.2 29.5 0.00 0.00 0.37 95 1007.6
20260501231218 65 8 22.6 28.7 0.00 0.00 0.37 96 1007.3
20260501230538 65 6 20.9 29.5 0.00 0.00 0.37 96 1007.3
20260501225858 65 7 18.2 26.1 0.00 0.00 0.37 96 1008.0
20260501225428 66 3 18.2 26.1 0.00 0.00 0.37 95 1007.6
20260501224749 66 5 15.6 30.4 0.00 0.00 0.37 94 1008.3
20260501223858 66 17 22.6 29.5 0.00 0.00 0.37 94 1007.6
20260501223218 66 15 21.7 28.7 0.00 0.00 0.37 94 1007.6
20260501222751 66 16 20.9 29.5 0.00 0.00 0.37 94 1008.0
20260501221858 66 14 22.6 29.5 0.00 0.00 0.37 94 1008.6
20260501221218 66 11 24.3 27.8 0.00 0.00 0.36 96 1008.3
20260501220748 66 10 20.0 26.1 0.00 0.00 0.36 97 1009.0
20260501215218 66 356 13.9 31.3 0.00 0.00 0.36 96 1008.3
20260501214538 66 11 21.7 31.3 0.00 0.00 0.36 97 1007.3
20260501213858 66 9 21.7 31.3 0.00 0.00 0.36 97 1007.3
20260501213218 66 11 25.2 31.3 0.00 0.00 0.36 97 1007.6
20260501212538 66 356 16.5 26.1 0.00 0.00 0.34 95 1008.6
20260501211858 67 1 18.2 26.1 0.00 0.00 0.34 95 1008.6
20260501211218 67 20 18.2 25.2 0.00 0.00 0.19 92 1008.6
20260501210538 67 1 14.8 28.7 0.00 0.00 0.17 93 1010.0
20260501205858 67 20 19.1 27.8 0.00 0.00 0.17 93 1007.6
20260501205218 67 25 19.1 27.8 0.00 0.00 0.17 93 1007.3
20260501204538 67 20 20.9 30.4 0.00 0.00 0.17 92 1007.3
20260501203858 67 21 20.9 30.4 0.00 0.00 0.17 93 1007.3
20260501203218 67 17 23.5 30.4 0.00 0.00 0.17 93 1007.0
20260501202538 67 23 21.7 30.4 0.00 0.00 0.17 93 1007.0
20260501201858 67 24 20.9 33.9 0.00 0.00 0.17 93 1007.0
20260501201218 67 21 22.6 30.4 0.00 0.00 0.17 94 1006.6
20260501200749 67 25 20.0 30.4 0.00 0.00 0.17 94 1007.0
20260501200110 67 17 22.6 32.2 0.00 0.00 0.17 93 1007.6
20260501195218 67 21 23.5 32.2 0.00 0.00 0.17 94 1007.6
20260501194751 67 24 19.1 28.7 0.00 0.00 0.17 95 1007.3
20260501193859 67 28 20.9 28.7 0.00 0.00 0.17 96 1007.3
20260501193218 67 30 15.6 20.9 0.00 0.00 0.17 97 1007.6
20260501192538 68 33 16.5 22.6 0.00 0.00 0.17 96 1007.6
20260501191858 68 26 17.4 23.5 0.00 0.00 0.17 95 1008.0
20260501191218 68 19 15.6 26.1 0.00 0.00 0.17 94 1008.3
20260501190538 68 17 19.1 26.1 0.00 0.00 0.17 93 1008.0
20260501185858 67 18 17.4 25.2 0.00 0.00 0.17 92 1008.0
20260501185431 67 18 17.4 25.2 0.00 0.00 0.17 92 1008.6
20260501184538 66 11 14.8 24.3 0.00 0.00 0.17 92 1008.3
20260501183858 66 8 18.2 24.3 0.00 0.00 0.17 91 1008.3
20260501183218 66 3 15.6 20.0 0.00 0.00 0.17 90 1008.6
20260501182538 66 7 13.9 20.0 0.00 0.00 0.17 89 1009.0
20260501181858 67 9 14.8 20.0 0.00 0.00 0.17 88 1009.0
20260501181430 67 6 15.6 20.0 0.00 0.00 0.16 88 1008.6
20260501180538 66 9 13.9 26.9 0.00 0.00 0.16 91 1009.0
20260501175858 66 358 19.1 26.9 0.00 0.00 0.16 92 1008.6
20260501175218 65 359 20.0 26.1 0.00 0.00 0.16 94 1008.6
20260501174538 66 3 20.0 25.2 0.00 0.00 0.16 94 1008.6
20260501173858 66 5 21.7 26.1 0.00 0.00 0.16 94 1008.3
20260501173218 66 358 20.9 26.1 0.00 0.00 0.16 92 1008.6
20260501172538 67 352 20.0 25.2 0.00 0.00 0.16 93 1009.3
20260501171858 67 353 19.1 26.1 0.00 0.00 0.16 93 1009.3
20260501171430 68 351 18.2 26.1 0.00 0.00 0.16 94 1009.3
20260501170538 68 345 21.7 26.1 0.00 0.00 0.16 93 1009.3
20260501170112 68 354 19.1 26.1 0.00 0.00 0.16 94 1009.7
20260501165218 68 10 20.9 26.1 0.00 0.00 0.16 95 1009.3
20260501164538 68 11 17.4 21.7 0.00 0.00 0.16 95 1009.3
20260501163858 68 8 14.8 21.7 0.00 0.00 0.16 96 1009.3
20260501163429 68 8 17.4 20.9 0.00 0.00 0.16 94 1009.3